Wind_Speed
12 12 11 12 12 12 12 13 13 13 13 12 12 12 12 11 11 11 10 10 10 10 10 11 11 10 9 9 8 9 12 14 13 9 10 16 17 15 8 7 14 13 14 15 17 14 8 5 6 6 5 3 2 1 4 4 2 1 1 1 3 2 2 2 2 2 6 7 7 7 5 5 6 2 2 3 4 6 8 6 5 7 9 12 17 24 24 22
12 12 12 13 13 13 13 13 13 13 13 13 13 12 12 11 11 11 10 10 10 10 11 10 10 9 9 8 7 9 12 14 13 12 18 19 11 11 14 10 14 18 18 18 20 17 9 5 6 6 4 2 1 2 3 3 3 2 1 0 3 3 2 1 2 3 6 8 8 7 4 5 5 3 2 4 5 5 9 7 7 10 11 15 20 23 22 22
13 13 13 13 13 13 13 13 13 13 13 13 13 13 12 12 11 10 10 10 10 10 11 10 10 9 8 7 7 9 11 11 7 10 14 13 12 11 14 14 15 20 20 20 21 19 13 11 11 8 3 1 1 2 3 1 3 2 1 1 3 3 2 3 4 5 7 8 9 6 4 5 3 1 1 6 8 6 8 7 7 11 12 14 16 19 21 21
13 13 14 14 15 14 14 14 13 13 13 13 13 13 13 12 11 10 10 10 10 10 10 11 10 8 7 5 6 8 8 6 3 5 3 3 9 12 15 18 18 21 18 16 18 15 11 12 12 6 2 1 1 1 2 2 2 2 2 3 3 1 1 2 4 7 9 7 8 6 6 5 2 2 2 9 9 4 6 8 9 12 15 16 14 16 19 19
13 14 15 15 15 15 15 14 14 13 13 13 13 13 12 11 10 10 9 10 11 11 11 10 9 8 5 3 5 6 6 1 2 3 2 2 4 14 19 21 20 21 16 13 15 11 7 10 8 3 3 2 1 1 2 4 4 2 3 4 3 1 1 1 5 9 8 7 6 6 7 5 2 3 3 7 6 3 5 7 11 13 15 17 15 15 16 16
14 15 15 15 16 16 15 15 14 14 13 13 13 12 11 10 10 9 9 10 11 11 11 10 9 7 2 2 4 3 2 1 6 5 1 5 3 18 22 23 21 21 17 12 13 10 5 6 6 3 3 1 2 3 3 4 4 2 3 3 4 3 3 3 8 9 7 8 6 5 4 4 5 4 2 3 2 4 6 6 10 12 15 19 18 15 13 12
14 15 15 16 16 16 16 16 15 14 14 13 12 11 10 9 9 9 10 10 11 12 10 10 9 4 1 1 1 2 2 5 8 4 4 7 7 22 24 24 21 20 18 12 11 8 5 5 5 4 4 1 2 4 4 2 5 3 3 3 3 4 5 6 8 9 7 7 5 4 4 3 6 4 1 3 2 5 8 8 11 13 16 19 16 12 11 12
14 15 15 16 17 17 16 16 15 14 14 13 11 10 9 8 9 9 9 10 11 11 9 8 7 1 2 2 1 3 1 6 9 5 6 4 14 24 25 24 19 19 19 15 11 8 6 5 5 4 4 2 2 3 4 2 3 4 4 2 3 4 6 7 7 9 8 5 5 7 7 6 4 2 1 3 3 6 10 10 12 13 15 14 13 12 11 12
15 15 15 16 17 17 17 16 15 14 13 12 11 10 9 8 8 8 8 10 10 9 9 6 4 2 3 1 1 2 3 5 10 7 5 2 19 25 25 22 18 17 17 16 13 9 6 4 5 4 3 4 2 2 3 2 3 6 6 2 5 5 8 8 7 8 7 4 5 9 8 4 4 2 1 3 2 8 12 11 12 13 13 12 11 11 11 10
14 14 15 16 17 18 17 16 15 14 13 12 11 10 9 7 6 7 8 9 8 8 7 3 0 3 2 1 3 0 4 6 10 5 1 8 21 25 23 20 19 17 14 13 12 9 5 4 4 2 3 1 1 3 2 4 3 5 6 3 7 9 9 7 7 7 5 4 5 9 9 1 2 1 2 2 2 9 13 11 12 13 12 12 11 10 11 12
15 15 15 16 17 18 18 17 16 14 13 11 10 8 7 6 5 6 6 6 6 6 4 1 1 3 2 2 4 3 3 6 11 9 0 14 21 24 23 20 20 19 15 10 9 10 6 3 1 1 2 1 3 4 2 4 4 2 6 5 8 11 8 6 9 8 5 5 4 8 8 1 2 0 3 1 2 10 14 12 11 12 11 11 11 10 10 11
16 16 16 17 17 18 18 17 16 15 13 10 8 6 5 6 5 5 5 4 4 4 1 0 2 5 2 2 4 7 2 6 11 10 2 16 19 20 20 19 20 20 17 11 8 14 11 2 4 3 2 2 2 3 2 4 5 2 6 6 8 9 5 6 8 6 5 6 8 10 7 1 3 1 3 3 5 12 14 13 12 11 10 9 10 8 8 10
16 16 17 18 18 19 19 17 16 15 12 9 6 5 5 5 5 4 3 3 3 2 1 2 4 4 2 1 6 7 5 7 9 5 3 14 15 12 14 15 16 15 14 11 9 15 15 7 3 3 1 2 2 3 3 5 2 3 3 5 7 5 3 2 5 4 2 7 11 9 3 4 5 2 3 2 6 13 14 13 12 10 9 8 8 8 7 10
17 17 18 19 19 19 19 17 16 15 12 9 6 5 5 5 4 3 1 2 2 1 3 5 5 3 2 5 7 5 3 6 7 4 5 13 12 7 9 11 11 11 9 7 4 8 15 12 0 3 2 1 3 5 5 5 3 4 4 2 4 3 3 1 4 4 2 6 7 2 1 5 4 3 3 2 6 13 14 14 12 10 9 8 8 8 7 9
18 18 18 19 19 19 19 17 16 15 12 9 6 5 5 5 4 2 1 3 3 4 5 5 3 1 2 6 7 4 3 4 6 6 6 13 12 6 7 9 9 9 8 5 4 3 11 11 3 1 2 2 0 3 4 3 3 3 3 0 1 3 2 4 7 5 2 6 4 1 1 2 2 4 3 2 6 11 13 14 13 11 10 9 8 8 8 8
19 19 19 19 20 19 19 18 17 16 11 7 4 3 4 4 2 1 2 4 4 6 6 3 1 1 1 4 4 4 3 2 5 5 6 13 13 6 6 8 7 7 7 5 4 3 5 7 3 2 1 2 2 3 3 3 3 3 2 1 1 3 1 3 7 5 3 6 3 2 2 0 2 4 4 4 7 10 11 13 13 12 11 10 8 8 8 7
20 19 19 19 20 19 19 19 19 15 10 5 2 2 3 1 2 1 2 4 4 6 5 2 2 2 2 6 5 3 3 3 7 6 5 13 13 8 8 7 5 7 5 3 4 3 1 2 1 1 1 1 2 4 4 2 1 2 2 2 1 2 2 1 5 6 6 8 5 4 2 1 2 4 6 5 7 8 10 12 13 12 11 10 9 8 8 8
21 20 19 19 19 19 19 19 19 14 9 5 2 1 2 3 3 2 3 5 5 4 2 1 1 2 2 5 3 2 7 8 8 7 3 11 12 9 7 5 5 8 6 2 1 1 1 0 1 1 2 2 2 4 4 3 4 4 2 3 0 1 2 2 3 7 10 9 8 6 3 2 2 4 6 5 7 9 8 9 11 11 11 10 10 9 9 9
21 20 19 19 19 19 19 20 18 12 9 7 4 7 7 5 4 3 3 5 3 1 2 2 1 1 2 4 4 7 11 10 8 6 5 10 10 8 6 6 6 7 5 2 1 1 2 2 3 1 2 2 4 4 5 5 5 6 4 4 3 2 2 3 2 6 10 8 7 9 5 2 4 5 6 5 6 8 6 4 7 10 10 10 9 9 9 9
21 20 19 18 18 19 19 20 18 10 9 7 5 8 5 3 3 2 1 2 4 4 4 3 4 2 5 5 6 9 9 5 4 2 8 11 12 10 3 3 5 4 3 5 2 1 3 3 2 4 5 5 5 6 6 4 4 5 3 3 2 3 2 1 2 5 9 6 4 7 5 3 3 4 6 5 6 8 7 6 6 9 10 10 10 10 11 10
21 20 19 18 18 19 18 20 16 8 10 8 3 4 2 1 3 3 3 3 6 8 8 6 4 5 8 8 6 5 4 2 2 1 8 12 13 10 0 1 5 3 1 4 4 2 3 4 5 6 7 6 5 5 5 2 4 5 4 3 0 2 3 2 2 6 8 4 3 6 5 3 3 4 3 3 7 11 11 10 8 9 10 9 10 11 11 9
22 20 19 18 17 18 18 20 14 7 11 10 2 2 1 1 3 3 1 4 6 6 8 6 2 6 9 11 11 3 2 1 2 2 7 11 7 5 1 3 4 2 2 2 5 4 2 3 7 7 5 4 3 3 3 2 4 4 3 3 0 2 2 2 2 5 7 2 2 6 6 5 4 6 5 4 7 9 10 10 8 8 9 9 10 11 11 9
23 21 19 18 17 17 18 19 11 6 13 12 3 2 2 8 6 6 2 2 6 4 3 3 3 5 5 6 7 6 3 2 1 2 7 11 3 4 5 4 4 2 1 3 5 5 2 4 7 6 5 6 3 3 6 3 2 3 3 3 2 3 1 1 1 4 4 2 3 5 3 3 4 5 6 6 7 5 6 7 6 5 4 7 9 9 10 10
23 22 19 18 18 16 18 17 7 8 16 11 4 4 9 17 10 3 2 0 3 5 3 4 4 4 3 2 5 7 2 2 3 2 8 10 3 2 4 4 4 2 1 3 6 5 4 5 3 5 6 6 4 3 6 4 1 2 2 4 3 2 2 2 3 4 3 3 3 6 3 1 4 5 5 6 6 6 4 5 7 6 4 3 6 8 10 10
24 22 20 19 17 16 18 12 5 11 17 7 3 9 15 19 10 2 2 2 2 5 3 1 1 2 3 0 4 4 0 1 3 3 6 9 6 3 2 2 3 2 2 4 6 3 5 6 4 6 4 4 4 3 4 6 2 3 3 7 6 5 4 6 8 5 3 1 2 4 2 3 4 7 6 5 6 7 5 7 10 10 6 4 6 8 8 8
24 21 19 18 17 16 13 4 5 15 13 2 4 12 17 18 8 4 3 4 2 4 3 2 1 2 3 1 2 1 3 2 4 2 4 9 7 4 2 1 1 2 4 4 3 2 3 2 4 5 4 4 3 3 4 5 5 2 5 7 7 6 7 9 9 5 2 3 3 4 3 2 3 5 8 7 7 8 9 10 12 11 8 6 7 8 7 8
24 21 19 17 15 15 9 3 9 13 4 2 9 14 18 15 4 3 3 4 2 3 3 2 1 3 2 1 1 3 2 4 3 1 2 6 3 4 3 3 0 2 3 3 1 2 2 1 3 4 4 4 3 3 4 6 7 3 5 6 7 7 8 11 9 4 2 2 2 3 3 1 3 4 8 10 9 9 11 13 13 12 11 9 8 9 8 9
24 21 18 15 13 13 8 6 10 7 1 6 12 15 18 10 1 3 5 3 2 2 1 3 2 1 3 2 3 3 2 3 1 2 2 3 1 4 3 4 5 4 2 5 3 5 2 3 3 4 3 3 4 5 7 8 5 6 5 6 7 7 7 9 7 3 2 3 1 3 3 1 4 3 5 9 8 9 12 14 14 14 14 11 9 9 8 8
23 20 17 15 13 10 8 8 7 4 5 11 14 16 15 5 3 4 5 2 2 2 1 1 2 2 3 2 3 2 1 1 1 3 3 4 1 3 3 5 6 5 1 5 4 5 2 5 6 6 4 5 6 6 9 10 5 6 5 4 3 2 3 5 5 3 3 2 3 6 5 2 3 2 6 8 8 11 13 12 13 14 15 13 10 9 8 6
23 19 17 15 12 8 8 10 7 4 9 15 16 15 8 2 4 5 4 1 1 2 2 1 2 2 2 3 3 3 1 1 1 2 2 2 2 5 2 3 5 4 0 3 1 5 4 2 3 4 4 6 6 5 8 11 9 3 2 3 4 5 4 4 2 3 3 2 4 8 10 5 2 2 6 8 6 8 11 10 11 13 14 14 11 9 8 7
21 17 16 14 11 7 6 7 6 9 14 16 14 9 3 2 4 5 2 1 1 3 3 2 3 3 3 3 2 3 0 2 4 3 3 2 4 5 3 1 3 2 3 4 2 4 6 3 2 3 5 6 4 2 3 6 7 4 3 4 4 3 3 4 3 2 3 5 4 7 10 6 3 4 5 7 4 3 8 12 14 16 15 14 12 10 8 6
20 15 14 12 10 8 7 7 10 13 15 13 9 5 4 2 3 2 1 3 2 3 3 2 4 2 3 4 3 3 2 2 3 3 3 2 4 3 2 1 2 1 2 3 2 4 4 4 3 3 4 5 5 1 2 2 2 4 3 5 4 0 2 2 1 1 3 5 3 6 9 4 5 4 2 6 7 4 7 10 13 16 16 14 13 11 8 6
19 13 11 9 9 9 10 10 12 12 11 8 4 4 5 4 3 1 3 2 1 2 2 1 4 3 4 5 4 4 2 2 3 3 3 3 4 3 3 1 2 3 1 3 1 3 3 5 4 2 3 3 7 5 1 1 3 6 5 5 4 3 3 2 2 0 2 4 1 6 8 2 4 2 3 6 8 7 6 8 11 14 15 15 14 12 9 7
17 10 7 7 8 9 9 8 7 7 8 5 4 5 6 4 1 2 2 3 2 2 2 1 4 5 5 3 2 2 4 4 3 3 4 4 4 3 4 5 3 3 1 1 2 1 1 3 3 3 2 1 4 6 6 5 5 5 5 6 5 4 4 4 3 3 3 2 1 5 5 2 2 1 6 8 7 7 6 7 8 10 12 12 12 12 10 8
14 7 5 5 6 6 5 4 4 4 5 5 6 5 5 2 3 2 1 4 2 2 2 2 4 6 5 3 3 2 3 3 4 4 5 4 3 2 3 4 4 2 3 1 1 1 2 4 7 4 2 3 3 4 5 7 3 3 3 5 4 5 5 2 3 5 3 2 2 3 3 2 3 1 6 7 5 1 5 6 6 9 10 10 10 11 11 9
11 5 3 3 5 5 4 4 2 3 4 5 6 5 2 2 2 2 2 2 1 2 2 4 6 5 4 4 4 6 3 3 4 4 4 3 2 2 2 3 3 2 3 3 1 0 1 4 7 4 2 4 5 3 2 4 3 1 3 4 4 5 6 3 2 1 2 3 1 1 1 4 2 1 6 8 8 6 2 5 7 8 10 11 10 10 11 11
11 6 2 4 6 5 4 2 3 3 4 6 5 3 2 2 3 4 2 2 0 2 4 3 3 2 2 3 4 6 5 3 4 3 2 3 2 3 4 4 4 1 2 3 1 1 2 3 6 2 2 5 3 2 2 3 5 4 3 5 3 3 3 3 2 2 3 2 2 1 1 3 1 1 4 8 8 8 5 3 5 5 8 9 8 8 10 11
11 5 3 7 7 2 0 3 4 4 5 5 4 1 1 1 2 3 2 1 0 3 6 2 0 1 1 1 2 5 4 3 3 3 2 2 1 1 3 3 3 3 2 1 2 1 2 1 7 3 2 6 4 3 0 3 1 4 4 4 4 3 1 1 2 2 1 2 2 2 2 2 2 2 3 6 6 6 6 5 5 5 5 5 4 5 6 7
8 3 3 9 8 2 4 4 4 5 6 4 2 0 1 2 3 3 2 0 1 4 4 1 1 2 2 2 0 3 3 2 1 2 2 1 1 0 2 1 3 6 5 2 3 1 1 1 4 5 3 4 5 3 2 3 3 1 2 2 2 3 4 3 2 3 3 3 2 1 1 2 3 2 2 2 3 4 5 6 6 7 7 6 5 4 5 7
4 2 1 9 7 6 7 3 4 6 4 2 1 2 2 3 4 4 2 1 2 2 2 1 1 3 1 1 1 1 3 3 2 2 2 1 1 1 2 1 3 6 5 4 3 0 1 2 2 6 4 2 3 1 3 3 1 1 2 1 1 1 2 3 1 1 4 4 3 2 1 4 3 2 2 2 4 4 5 7 7 8 10 9 8 7 7 7
4 3 2 7 6 9 5 2 4 4 2 1 1 2 2 1 2 6 5 3 2 1 3 4 3 2 2 1 2 1 2 3 2 2 1 1 2 0 2 0 2 4 3 5 4 1 1 1 1 4 4 2 3 4 4 4 5 4 3 2 3 2 3 3 1 1 2 4 3 4 3 4 2 1 1 3 5 5 7 9 8 8 9 9 8 9 8 7
4 2 2 5 2 8 4 4 1 1 2 1 1 2 2 2 2 4 5 5 4 2 3 3 3 2 2 2 1 1 2 3 3 2 1 0 2 2 2 2 3 2 2 2 2 2 1 2 1 2 3 3 7 6 3 2 3 3 2 2 2 2 4 5 4 3 1 2 1 3 1 4 3 1 2 4 5 6 7 8 8 8 8 8 8 9 9 9
3 1 3 5 3 6 5 4 3 3 0 3 2 1 1 1 2 3 4 5 4 2 3 2 1 1 1 1 1 2 3 2 1 1 1 1 1 4 4 6 4 1 4 2 2 2 1 2 2 3 4 4 6 6 4 2 4 3 3 2 2 1 1 5 5 3 3 2 1 3 0 3 2 2 3 5 6 6 6 7 9 8 7 8 8 7 8 9
1 3 3 6 1 4 3 1 2 2 3 3 2 2 2 2 2 3 4 4 3 2 2 2 0 1 1 2 3 2 1 2 1 2 0 1 1 3 4 6 4 3 2 1 1 1 1 1 2 2 3 4 5 6 6 4 4 2 3 3 3 3 2 4 2 3 2 3 4 4 2 3 2 4 5 6 7 8 7 7 8 8 8 8 8 7 7 7
2 1 3 6 5 3 3 3 4 2 2 1 4 3 3 2 1 2 2 2 3 2 1 1 1 2 2 3 4 2 2 3 1 1 1 0 2 3 4 6 4 3 1 2 1 1 1 2 2 2 2 1 0 2 3 4 4 2 3 4 6 5 1 4 3 3 2 3 4 5 3 2 5 7 7 7 8 8 7 7 8 7 8 8 7 7 6 6
2 1 2 6 6 5 1 1 4 3 2 3 3 2 3 2 2 1 2 2 3 3 3 2 2 2 4 5 4 4 5 3 2 2 2 2 3 2 4 5 4 5 5 4 4 3 3 2 2 4 4 4 4 3 4 3 2 4 6 8 7 6 1 4 4 2 4 4 3 3 4 8 10 11 10 8 8 8 8 8 8 7 7 7 6 6 6 6
2 1 1 2 3 4 2 3 5 2 1 3 2 1 2 2 3 3 2 2 2 2 3 3 5 3 1 2 4 3 4 4 4 3 2 3 3 3 4 4 5 8 8 5 5 3 4 3 2 3 3 2 5 5 5 3 1 2 8 10 9 9 4 3 3 4 6 6 3 5 7 11 13 13 12 10 9 9 9 9 8 7 7 7 7 6 6 6
2 1 1 2 1 1 1 3 4 3 2 3 3 1 3 3 3 2 2 2 3 3 3 3 7 5 2 2 5 2 3 4 4 3 2 2 3 4 5 4 4 8 6 4 5 3 5 2 2 2 1 3 4 4 2 4 3 2 6 8 10 11 6 1 2 3 6 5 4 7 10 10 10 13 12 10 9 9 9 9 8 8 7 8 8 7 7 7
2 1 1 1 1 3 2 3 3 2 3 3 3 2 2 3 3 1 2 3 4 4 4 4 5 7 5 4 5 3 1 2 2 3 2 2 3 2 4 3 3 5 5 4 4 2 4 1 3 1 1 1 5 5 2 7 7 4 6 9 10 9 6 3 3 3 4 1 3 10 12 6 6 10 11 9 8 8 8 8 8 9 8 8 9 9 8 8
1 1 1 2 2 1 1 2 2 3 3 3 3 2 2 3 2 1 2 3 2 4 4 5 1 3 6 6 6 4 2 5 3 2 2 1 2 1 0 1 2 5 6 4 3 2 3 1 2 2 2 2 6 7 5 7 7 5 7 12 13 11 7 4 4 4 5 4 4 11 11 4 4 8 10 9 8 7 8 9 8 8 8 9 10 10 9 9
1 1 0 3 2 3 2 2 3 4 2 3 2 2 1 1 2 2 2 1 2 0 0 6 5 1 5 7 7 2 4 6 5 5 5 3 1 1 0 1 2 3 5 3 2 4 3 2 2 4 3 2 5 5 5 6 7 7 10 14 14 10 5 3 4 3 2 6 9 9 7 5 6 9 11 10 9 9 9 9 8 7 8 10 10 10 9 8
3 1 2 3 1 3 2 2 3 3 1 1 2 2 1 2 2 4 3 2 2 1 2 7 6 3 4 5 4 3 6 7 7 7 5 3 1 1 1 2 3 1 1 1 2 3 2 2 2 4 2 2 5 3 2 2 4 6 6 8 10 7 2 3 6 7 4 5 8 5 2 4 8 11 12 11 9 9 8 7 7 7 9 11 10 9 9 9
Wind_Direction
345 344 342 340 338 337 335 333 330 329 328 325 321 320 321 322 321 322 321 322 325 326 331 332 329 325 321 320 318 314 318 316 311 301 255 253 250 230 225 197 188 178 161 164 170 157 136 154 166 157 142 145 188 167 170 178 139 98 138 250 274 252 244 241 222 177 139 146 153 157 167 137 126 135 127 96 81 100 89 65 69 68 84 103 118 131 137 141
345 344 341 339 338 337 335 331 329 328 326 323 320 318 318 318 317 318 318 321 323 325 331 332 331 327 322 325 323 325 328 320 312 287 255 251 258 227 213 191 175 176 166 165 173 161 143 166 163 141 121 132 204 170 160 170 151 144 140 286 262 235 299 334 117 107 130 143 137 141 147 129 133 141 140 124 116 104 93 90 97 94 99 110 123 134 137 139
346 343 340 338 338 337 333 331 329 326 324 321 319 318 316 314 314 315 316 319 319 324 329 330 331 325 323 325 325 333 329 326 313 270 261 249 241 220 191 176 172 176 172 174 179 173 173 175 157 141 120 140 203 179 173 182 179 169 115 286 261 243 337 40 86 79 97 123 126 127 123 111 113 94 137 133 122 109 114 130 126 122 128 128 135 139 138 140
343 341 340 337 335 334 332 330 328 325 322 320 318 317 313 312 313 312 317 319 320 324 324 328 329 323 324 321 324 335 328 327 296 254 254 234 225 208 182 169 171 178 174 175 176 168 168 159 148 144 116 152 261 191 183 204 188 163 160 221 249 240 356 62 88 87 97 115 125 126 118 114 101 31 115 136 126 124 150 161 150 144 143 139 145 143 141 143
341 339 338 335 334 333 331 328 326 325 323 321 319 316 313 312 311 313 321 323 323 323 323 326 324 324 323 326 336 337 345 20 290 289 162 309 225 186 178 169 173 179 164 157 165 154 136 136 138 136 102 141 222 156 207 200 163 170 213 228 241 148 68 121 112 110 113 116 123 129 129 133 123 65 108 138 137 158 164 166 153 147 147 144 147 144 143 146
339 337 337 335 335 334 331 328 326 325 323 322 319 317 315 312 312 319 327 326 322 321 324 325 321 324 326 348 346 346 28 186 294 311 232 318 214 174 171 167 173 178 166 149 156 157 134 121 132 146 119 113 194 205 240 192 158 219 260 248 231 160 126 139 124 123 121 121 132 134 125 116 106 90 80 100 106 142 136 146 144 142 145 143 145 145 145 150
336 336 337 337 339 336 332 330 328 325 322 320 318 319 317 315 319 325 329 325 320 321 323 323 320 320 84 33 355 42 68 250 296 306 285 317 180 169 165 166 169 173 175 161 144 152 144 122 143 145 117 126 207 224 257 184 175 223 280 262 204 143 133 145 133 123 110 111 124 112 94 76 103 118 84 38 32 124 125 134 135 137 143 142 146 149 148 154
335 336 336 338 341 339 334 332 329 326 322 319 318 318 319 321 325 326 327 323 320 323 321 322 324 302 104 90 171 10 321 260 309 312 300 301 167 164 161 164 168 170 173 171 158 148 146 136 162 145 117 197 199 225 246 168 177 215 241 236 129 121 125 124 116 113 104 103 114 98 73 32 52 106 108 31 18 123 126 133 134 138 144 146 153 153 151 158
336 336 336 339 342 341 338 334 331 328 323 320 319 319 323 327 328 327 324 323 322 322 323 323 331 112 110 68 98 349 274 294 322 308 311 193 165 163 164 167 173 172 164 171 170 152 157 165 178 153 146 215 207 247 240 168 211 214 208 172 121 125 114 105 102 118 123 121 115 100 85 30 5 36 95 20 22 132 130 133 139 143 150 153 158 157 155 159
335 335 337 340 342 342 341 339 335 331 327 324 326 325 328 329 327 328 323 327 328 324 331 333 22 109 110 1 90 144 282 344 351 336 332 170 165 163 171 175 177 174 160 166 170 155 158 176 186 141 113 228 270 287 232 169 239 208 176 150 137 123 106 118 126 126 117 87 89 106 113 118 346 63 151 25 56 138 133 136 145 148 155 158 159 160 159 163
337 339 340 342 344 343 343 343 338 334 332 330 332 328 327 326 321 328 329 334 334 329 338 2 105 126 136 64 114 212 293 22 17 8 106 173 167 170 179 184 183 178 164 155 166 171 171 157 141 75 108 312 302 297 246 207 284 207 150 123 118 101 100 141 132 135 129 99 99 105 103 51 338 78 165 143 147 147 140 143 152 154 159 161 160 162 164 168
343 344 344 346 346 344 345 346 343 340 339 338 335 326 318 315 314 322 335 347 341 344 358 261 149 144 112 65 197 226 258 10 7 11 133 174 171 176 185 190 189 184 174 161 174 187 193 209 38 63 188 332 323 298 293 272 294 183 139 112 104 90 123 148 118 157 169 128 139 117 90 248 230 182 136 146 162 150 145 149 157 160 161 163 162 164 168 172
348 348 349 350 350 349 348 349 348 347 347 346 335 318 306 301 309 314 339 10 355 3 90 170 166 150 59 270 246 249 257 314 334 4 148 179 179 181 192 195 190 188 180 166 178 193 200 214 38 52 238 4 302 276 327 320 317 134 103 103 117 106 163 113 91 177 161 128 152 136 118 209 215 198 122 146 168 153 151 156 161 164 163 166 167 166 171 173
352 351 352 354 354 352 351 352 352 351 353 351 332 309 295 288 293 292 345 51 58 90 139 142 152 138 55 258 275 314 285 293 300 283 182 185 192 192 200 200 192 190 177 144 140 193 202 205 240 0 268 220 249 298 339 345 9 105 82 72 121 132 192 124 134 191 130 140 175 149 149 197 206 193 139 158 178 161 158 161 162 165 167 168 170 171 175 178
354 352 353 354 355 354 354 354 353 354 356 349 333 307 291 283 282 273 104 101 111 115 129 127 129 106 6 280 282 339 299 280 290 271 213 197 197 197 199 193 192 191 186 161 122 163 189 184 160 343 270 257 222 352 349 357 6 76 105 317 18 102 173 154 156 207 169 147 209 322 101 213 202 171 150 150 184 173 164 164 164 167 170 170 175 177 178 184
354 353 353 353 354 355 354 354 355 358 356 347 336 299 285 279 265 207 115 107 123 128 124 110 67 75 55 289 309 348 293 279 326 308 231 208 201 189 164 158 162 177 188 191 186 210 178 160 150 173 260 302 114 74 26 24 2 355 90 167 196 117 202 145 142 214 209 134 199 261 113 245 237 159 144 151 187 185 169 167 167 169 173 172 176 182 182 185
354 352 352 352 353 354 353 354 358 2 360 355 337 259 261 237 177 138 112 107 130 147 136 90 19 36 272 286 316 346 317 323 338 331 225 206 203 181 139 127 119 143 156 166 198 240 182 153 179 176 6 19 123 93 68 47 270 286 62 108 208 154 177 134 135 190 189 145 171 223 157 199 226 152 147 160 181 189 180 173 171 170 174 175 177 182 184 185
354 351 351 351 351 352 353 356 1 8 11 14 39 176 159 131 123 99 106 114 123 153 160 292 10 46 270 286 309 290 306 309 317 325 226 199 197 177 136 124 121 123 117 75 150 173 116 19 75 90 345 58 126 109 123 210 197 186 167 125 144 142 166 217 159 173 179 160 162 185 199 196 181 150 153 165 174 190 197 177 173 173 176 178 178 181 184 187
355 352 351 350 350 350 352 356 0 12 20 24 80 122 133 121 102 93 101 108 112 223 274 247 193 42 255 262 288 298 305 300 291 288 190 177 176 166 126 117 118 113 115 90 74 176 136 65 68 134 264 179 180 163 165 207 166 155 169 145 160 188 221 225 151 159 166 157 167 184 192 168 160 161 165 170 170 189 207 183 177 177 178 182 179 183 186 188
355 352 351 349 349 349 350 354 357 11 22 25 119 125 114 73 37 357 326 160 200 233 260 227 183 268 283 266 297 314 314 300 276 220 171 172 156 145 122 94 75 61 122 136 157 212 130 135 186 198 208 200 203 191 169 161 115 114 106 103 164 197 248 259 127 163 160 148 176 178 173 158 144 151 168 178 169 182 201 200 190 182 182 187 182 185 188 191
354 351 351 349 347 348 348 351 356 6 16 21 140 131 101 34 4 321 303 264 235 224 241 243 195 252 270 268 290 328 350 338 326 69 162 167 145 132 177 25 76 41 238 155 134 90 106 171 219 216 208 194 186 197 188 149 79 78 92 93 83 214 241 281 127 167 165 138 143 157 151 136 127 134 149 197 190 189 200 199 193 188 185 187 187 188 189 190
352 350 349 347 346 348 345 349 357 3 6 13 64 118 166 296 304 260 317 315 275 230 227 255 268 267 267 267 266 244 69 14 352 15 151 152 142 148 146 77 113 167 277 90 105 89 92 216 235 226 198 144 132 153 153 120 84 87 98 112 133 254 239 337 35 151 161 137 145 160 149 137 149 152 152 223 222 201 203 205 200 192 186 190 192 190 190 187
350 348 348 345 344 348 344 346 358 7 358 358 22 90 357 346 326 246 249 327 290 281 218 228 227 250 275 276 235 171 115 146 134 327 165 151 151 172 133 104 137 147 51 83 115 131 158 239 238 211 159 134 136 129 116 93 69 94 112 132 215 257 155 24 9 140 134 84 137 145 129 138 152 154 171 213 235 226 206 207 209 206 201 202 200 195 191 185
348 347 346 341 343 349 343 344 5 8 351 347 13 25 356 353 352 225 215 19 301 299 233 204 201 210 262 289 159 146 107 159 165 251 170 148 120 152 148 143 134 114 164 132 126 146 213 237 189 127 134 148 159 149 126 121 293 292 176 176 206 219 173 144 141 132 84 37 109 118 76 306 172 178 200 198 215 230 203 187 203 222 241 224 212 207 197 188
347 345 343 339 341 347 343 344 17 357 345 343 19 0 353 350 352 138 120 40 345 301 265 226 270 229 263 310 152 176 26 160 202 216 169 150 137 140 167 153 125 154 181 125 118 159 253 243 144 112 122 138 151 186 169 152 186 299 238 205 194 167 144 126 131 126 90 332 241 132 97 296 209 189 193 165 193 210 190 194 207 213 224 226 218 212 200 194
346 343 341 338 337 343 345 349 355 346 341 341 351 344 345 345 350 123 87 42 24 309 317 354 356 344 320 331 179 158 52 320 252 206 159 161 150 114 122 164 74 168 167 129 131 188 263 237 137 139 145 132 148 218 220 156 134 278 244 202 184 155 132 141 147 136 141 198 221 172 146 283 246 200 188 173 189 196 188 204 211 208 212 216 216 212 197 195
345 343 340 337 335 342 345 315 328 336 335 318 332 334 338 342 356 127 60 39 13 303 303 306 347 35 350 314 26 87 83 286 286 69 152 168 156 61 106 188 139 167 167 119 159 232 200 145 104 129 135 144 175 233 223 150 127 230 238 152 158 165 151 161 162 148 172 145 133 179 141 58 276 241 192 178 182 197 199 206 208 207 209 212 214 212 199 193
344 341 337 335 335 336 331 312 320 326 303 319 327 334 338 338 164 121 70 66 309 281 235 284 298 351 322 335 39 85 212 267 61 319 331 116 124 49 97 201 178 174 161 116 182 259 193 174 193 172 158 186 206 209 190 155 150 239 223 129 150 178 165 165 163 146 151 103 97 215 154 124 272 272 179 169 178 204 208 206 205 205 207 212 212 209 201 194
344 340 334 333 331 329 321 309 307 305 315 326 334 338 337 337 128 74 68 98 298 278 199 298 310 310 332 5 18 18 304 346 95 275 339 83 77 52 127 201 154 155 191 117 180 253 246 202 193 164 166 209 220 205 172 162 190 241 203 138 103 111 127 143 151 123 107 126 219 208 176 178 271 256 165 171 200 214 208 204 205 204 204 207 209 205 196 187
343 337 328 328 327 323 315 305 298 308 321 329 336 338 343 57 86 55 44 46 320 278 246 346 326 325 50 71 346 340 303 275 325 348 20 67 13 29 112 179 103 122 269 33 197 245 288 262 175 150 180 203 214 204 173 178 192 185 139 125 55 41 64 81 76 86 113 245 239 187 181 184 281 255 180 181 210 211 196 195 200 203 203 202 204 203 191 178
342 334 323 320 317 307 301 307 313 320 324 331 337 343 25 64 61 78 74 281 288 318 341 335 314 352 60 87 6 334 347 314 341 41 46 13 16 19 25 50 57 67 7 353 310 299 327 325 206 221 213 187 178 205 200 200 194 150 103 108 85 23 29 45 8 49 166 249 254 178 171 168 234 256 210 207 233 201 188 193 195 197 199 198 197 197 188 173
340 330 315 308 301 281 267 291 313 319 325 334 344 15 79 41 27 81 276 308 327 330 344 306 302 353 63 70 26 328 336 2 2 61 85 52 48 34 24 129 179 54 342 284 288 334 313 258 261 280 239 170 144 188 320 1 135 151 133 103 109 80 30 74 253 216 203 248 259 162 147 156 238 254 252 236 244 235 205 197 195 195 193 193 193 191 182 163
339 327 311 301 290 282 283 300 312 317 326 338 4 48 77 74 39 295 283 324 322 301 340 325 315 349 66 61 7 322 17 38 354 39 69 76 67 32 340 355 135 125 264 234 238 355 311 288 304 306 274 182 145 157 192 50 140 163 164 139 140 142 116 168 222 69 226 254 267 143 142 206 262 288 335 278 252 241 220 204 199 194 189 187 187 185 177 164
340 328 310 299 293 295 302 313 316 314 329 5 60 58 63 76 328 295 301 275 251 335 15 352 326 1 47 51 306 314 62 39 356 33 46 48 54 17 338 350 27 93 116 167 172 146 157 286 265 203 249 258 168 185 171 150 162 179 169 145 154 164 148 174 191 174 215 247 83 135 157 214 213 260 314 299 272 236 204 200 194 186 185 181 180 180 176 172
341 325 309 305 304 310 316 327 333 328 345 38 67 61 71 101 265 280 275 264 273 353 346 357 25 31 22 348 321 2 84 56 11 35 43 47 68 21 333 325 343 51 99 133 231 156 126 249 256 249 223 174 199 221 146 123 153 204 144 124 167 188 159 139 177 180 179 130 113 162 196 228 191 253 331 341 338 279 169 172 168 174 176 170 176 179 174 177
346 336 327 313 311 318 327 337 4 16 29 63 66 61 102 213 237 191 215 262 312 349 335 2 31 41 2 334 342 353 20 67 43 41 30 28 47 12 339 277 304 20 111 145 215 351 60 272 275 306 308 197 192 212 171 160 185 164 127 165 208 178 139 123 179 146 86 130 194 240 282 314 304 296 344 3 12 19 78 148 157 168 167 166 180 181 172 181
354 1 8 340 333 329 333 11 68 45 48 76 79 89 210 232 184 184 246 299 322 67 74 43 17 39 4 345 336 333 347 32 41 53 34 9 359 347 333 287 285 312 168 155 162 173 142 277 286 313 315 265 213 168 253 207 151 124 166 201 186 106 99 111 144 39 50 161 262 333 216 291 295 207 335 5 18 11 15 103 135 147 157 168 180 179 179 182
348 360 23 357 347 333 75 98 92 56 62 72 57 96 192 265 186 198 266 307 211 67 74 92 58 77 108 69 335 323 346 23 17 48 73 26 354 318 333 300 284 314 306 140 96 73 121 299 295 274 243 295 334 93 7 314 105 142 178 174 131 128 176 103 154 175 128 172 275 315 250 248 196 203 327 7 16 5 23 69 98 112 133 150 150 157 164 148
349 15 27 356 355 108 142 134 96 52 63 64 32 111 217 277 261 251 262 170 103 71 69 143 130 72 95 116 289 322 13 62 48 72 93 55 54 98 39 322 288 320 337 78 115 297 58 84 286 281 262 302 355 68 166 297 327 31 98 122 122 143 168 166 163 166 145 158 219 307 314 257 214 220 279 25 26 20 59 77 84 93 99 101 102 108 113 114
14 61 8 355 20 131 154 140 64 49 64 86 191 217 299 281 279 298 306 90 98 94 104 191 131 77 77 55 67 334 30 57 77 81 90 104 114 329 343 345 290 313 338 35 84 177 25 72 267 294 318 357 8 351 193 185 166 68 61 118 217 70 130 161 110 83 126 145 170 156 244 262 237 224 228 120 71 50 74 77 73 83 89 89 93 98 105 118
45 60 308 357 56 144 152 53 43 56 75 26 236 240 303 309 322 327 336 39 76 133 137 152 145 118 146 79 43 21 40 40 47 74 78 85 116 269 315 187 248 290 348 23 32 41 10 65 242 306 341 357 267 252 224 194 178 160 124 153 189 158 125 136 196 308 112 128 155 157 196 262 262 189 198 110 90 71 79 83 76 76 82 82 85 92 101 114
64 75 304 354 137 167 95 43 351 75 102 279 273 242 297 19 26 336 339 17 47 68 72 111 135 124 144 132 46 64 84 49 20 56 107 169 147 188 293 328 268 239 85 41 304 270 172 107 79 284 278 263 259 266 278 231 179 145 113 114 146 137 109 127 186 225 100 87 103 110 130 273 267 148 109 108 105 93 91 96 93 84 81 83 83 86 98 110
88 187 314 7 185 181 75 40 298 356 306 252 275 257 286 44 31 342 0 18 25 41 35 46 119 99 113 126 78 77 86 73 24 28 240 259 226 232 284 326 323 83 75 33 297 289 157 85 34 299 290 300 293 309 339 38 96 63 355 42 77 344 119 146 177 173 138 155 126 82 35 258 234 131 111 116 115 102 91 96 101 98 87 83 83 90 110 118
125 224 291 7 49 173 95 107 256 316 288 288 5 349 337 47 52 18 25 11 358 44 49 10 42 78 55 74 85 90 98 107 65 324 278 120 300 270 312 345 7 63 52 306 252 318 333 36 49 28 350 339 340 351 348 354 48 43 308 323 344 332 104 135 121 76 123 196 152 132 222 243 149 131 130 129 123 105 92 92 98 100 96 91 89 94 114 121
42 212 273 347 23 89 125 174 167 187 266 11 45 358 348 23 57 60 68 28 3 55 93 325 329 79 63 59 62 40 44 98 122 327 18 34 290 305 346 354 21 53 331 258 219 39 64 76 90 108 115 186 318 2 323 310 332 327 313 334 337 336 102 142 122 95 152 205 147 145 202 194 144 150 156 149 133 112 100 96 92 91 92 94 95 98 111 124
47 114 303 334 8 55 102 172 105 129 183 101 61 356 26 44 323 355 93 77 22 37 70 1 342 52 62 57 57 21 9 32 76 66 42 322 283 290 332 342 13 17 347 355 27 63 102 63 59 116 124 156 181 232 262 277 309 320 338 346 342 330 319 123 109 145 181 164 176 212 179 154 162 171 169 158 142 129 120 110 101 98 96 93 97 104 110 119
65 115 35 329 344 25 20 3 42 56 191 119 109 328 23 29 330 343 32 61 31 39 62 22 17 45 48 58 80 37 353 4 25 45 16 296 276 287 315 334 3 355 348 4 17 53 94 35 13 97 101 186 198 235 288 328 310 325 348 348 346 342 337 133 147 195 164 139 211 237 170 157 173 177 168 155 144 137 131 123 116 113 108 105 102 100 103 103
56 150 155 145 169 43 26 343 3 10 9 88 110 55 27 39 39 19 345 358 18 35 73 30 13 14 342 109 111 80 351 13 16 359 322 316 322 332 342 350 357 355 2 15 6 64 104 50 313 115 132 259 257 259 312 17 8 1 8 355 348 346 341 183 204 204 149 151 220 196 166 167 173 166 157 147 142 139 132 126 124 120 114 113 109 100 97 92
41 90 279 53 131 186 207 310 340 34 36 54 73 59 74 74 59 10 305 11 11 3 70 80 358 355 16 65 105 98 37 75 33 323 281 326 336 353 7 350 338 1 28 37 6 66 113 19 306 90 140 283 320 312 359 34 18 8 2 354 353 346 346 57 63 43 84 121 197 156 147 147 148 147 140 133 135 132 125 120 117 118 117 115 110 102 98 91
53 100 300 24 39 246 240 351 37 91 40 33 68 69 99 95 68 15 359 60 48 337 38 103 116 359 35 51 81 101 172 158 135 272 221 103 354 338 80 239 276 353 18 36 353 5 69 357 314 57 70 1 353 346 360 15 8 14 2 351 354 351 349 36 62 45 56 66 112 131 134 124 122 130 124 126 132 122 121 122 115 116 119 113 107 100 96 90
8 213 144 93 33 341 354 14 62 101 45 26 121 149 105 128 137 92 30 46 134 325 111 148 159 52 35 45 61 74 225 179 176 237 218 169 212 243 200 192 188 348 2 20 344 358 39 1 355 59 58 334 343 352 3 348 331 358 12 354 346 344 344 13 13 10 92 123 123 128 146 158 147 135 125 130 134 124 125 127 120 121 117 109 106 100 95 90
1 321 46 99 68 349 17 1 29 91 110 258 184 168 134 204 192 110 79 359 17 63 171 162 147 87 37 37 32 278 240 197 204 236 214 183 245 235 141 155 147 113 31 93 24 10 70 52 22 72 98 303 312 326 62 55 298 309 352 355 338 326 332 31 8 359 18 126 142 149 171 147 141 137 131 132 133 130 131 127 123 127 118 108 102 97 94 92
Height
797 796 795 794 793 792 791 789 788 787 786 785 783 782 781 780 779 779 778 778 777 776 776 775 774 773 773 772 771 771 770 769 768 769 765 754 753 757 759 760 762 764 765 766 768 770 773 775 776 777 779 781 783 783 782 782 782 790 800 808 809 805 800 793 791 790 791 795 795 795 793 796 800 797 793 793 798 798 799 801 801 800 799 802 805 808 811 814
796 795 794 793 792 791 790 789 788 786 785 784 782 781 780 779 778 778 777 777 776 776 775 774 773 773 772 772 771 771 770 768 767 766 757 750 753 756 757 760 761 763 764 765 767 768 772 775 776 777 780 783 783 782 784 783 784 793 801 808 805 797 791 786 787 786 787 792 794 794 793 795 798 797 794 799 806 802 804 808 806 807 806 806 807 810 813 815
796 795 793 792 791 790 789 788 787 785 784 783 781 780 779 778 777 777 776 776 775 775 774 773 773 772 772 772 771 771 770 769 766 759 750 749 753 753 756 759 760 762 763 765 766 767 770 772 774 777 781 785 784 784 786 785 786 791 798 807 800 790 788 785 785 785 786 790 794 797 794 796 797 795 795 801 807 806 808 811 809 812 811 809 810 811 813 815
795 794 792 791 790 789 788 787 786 784 783 782 780 779 778 777 777 776 775 775 774 774 773 773 772 772 772 771 771 771 770 769 761 751 748 749 750 752 755 758 759 762 763 765 767 769 769 771 774 776 782 788 785 784 788 786 787 791 795 801 792 786 790 786 784 785 786 789 794 797 796 799 797 794 797 800 808 811 809 806 806 809 809 808 810 811 814 816
795 793 792 791 789 788 786 785 784 783 782 781 780 778 777 776 776 775 774 774 773 773 773 772 772 771 771 771 771 771 771 769 757 747 749 749 749 751 754 756 759 761 764 766 768 769 770 771 774 778 783 788 788 788 789 783 783 791 791 790 785 785 791 787 784 785 787 790 794 797 799 800 796 796 799 800 807 810 805 802 801 803 805 806 809 811 814 816
794 793 791 790 788 787 785 784 783 782 781 780 779 778 777 776 775 774 774 774 773 772 772 772 771 771 771 771 771 770 771 767 753 747 749 748 749 750 753 756 758 761 764 766 767 769 771 772 776 781 784 788 790 789 787 780 781 791 790 784 783 783 787 787 784 785 787 791 796 797 797 796 798 801 800 800 804 801 798 799 800 801 803 805 808 811 815 817
794 792 791 789 788 786 785 783 782 781 780 779 778 777 776 775 774 774 774 773 772 772 772 771 771 771 771 771 771 771 771 762 750 749 749 748 749 750 753 756 758 761 763 766 767 769 771 774 778 781 785 789 790 788 784 781 782 790 791 785 782 781 784 785 783 785 787 792 794 793 795 798 802 804 801 801 801 797 796 798 799 803 804 806 809 812 815 817
793 791 790 788 787 785 784 783 781 780 779 778 777 776 775 775 774 774 773 773 772 771 771 771 771 770 771 771 770 771 769 759 749 750 749 748 749 750 753 756 758 761 762 766 767 769 772 776 778 779 786 789 786 786 782 783 787 789 790 784 781 782 783 784 785 786 787 790 791 793 800 804 802 802 802 804 801 797 797 798 800 804 806 809 811 812 815 817
792 791 789 788 786 785 783 782 780 779 778 777 776 775 775 774 774 773 773 772 771 771 770 770 770 770 771 771 771 770 762 753 750 750 749 749 750 751 754 755 759 760 763 766 766 769 772 776 777 776 784 785 783 783 779 786 790 785 784 782 782 784 785 789 790 788 787 788 791 797 806 807 800 800 804 804 801 799 798 801 803 805 809 811 812 813 814 817
792 790 788 787 785 784 782 781 780 778 777 776 775 774 774 773 773 773 772 772 771 770 770 770 770 770 772 771 771 768 756 751 751 750 749 750 750 753 755 756 758 760 763 766 767 769 771 774 774 772 778 781 781 782 779 785 783 776 779 780 781 785 788 791 792 790 790 793 795 801 809 807 799 802 809 805 800 800 801 805 806 807 811 811 812 813 814 817
791 789 788 786 785 783 781 780 779 777 776 775 774 774 773 773 772 772 772 771 770 770 770 770 770 771 772 771 772 765 753 751 752 750 751 751 751 753 755 756 758 760 762 766 768 769 770 772 770 772 779 781 781 781 778 777 774 772 777 781 784 789 793 792 793 794 793 798 799 800 808 808 803 806 808 804 801 800 803 808 809 810 812 812 813 814 815 817
790 788 787 785 784 782 781 780 778 777 776 775 774 773 772 772 771 771 771 771 770 770 770 770 771 771 771 772 769 760 751 752 752 752 753 752 753 755 755 757 758 760 762 765 768 768 770 771 770 776 780 779 783 784 778 772 771 773 775 787 795 798 800 795 796 797 794 799 796 796 812 815 809 808 805 802 801 801 804 809 811 812 813 813 814 815 816 817
789 788 786 785 783 782 780 779 777 776 775 774 773 772 772 771 771 771 770 771 770 770 770 771 771 771 772 769 760 753 752 752 752 753 754 754 756 756 757 759 760 762 763 765 767 768 770 771 771 776 776 779 785 781 774 770 772 777 778 788 801 807 808 800 798 799 798 801 792 796 819 822 812 807 803 801 801 802 807 810 811 813 814 815 815 816 818 818
788 787 785 784 783 781 780 778 777 776 774 774 773 772 771 771 771 770 770 770 770 770 770 771 772 772 772 764 752 751 753 752 753 753 754 755 756 757 758 760 761 764 765 766 767 768 769 770 772 775 775 779 780 776 776 777 777 782 786 790 800 811 813 803 801 802 804 804 796 801 820 820 811 807 804 802 802 804 808 810 811 813 814 815 816 817 818 818
788 786 785 783 782 781 779 778 776 775 774 773 772 771 771 770 770 770 770 770 770 771 770 772 772 772 772 762 751 751 752 751 752 752 753 754 755 757 758 760 762 764 766 767 768 768 769 771 775 779 779 776 777 782 786 786 784 786 795 804 804 808 811 805 802 804 805 804 799 805 819 818 810 807 804 803 804 805 808 810 810 813 814 815 816 817 819 818
787 786 784 783 781 780 779 777 776 774 773 772 771 771 770 770 770 770 771 770 771 771 771 773 772 773 772 761 751 751 751 751 751 751 752 753 754 756 758 760 762 764 767 768 768 769 769 771 775 778 780 779 783 789 791 794 796 792 798 809 808 807 810 807 804 803 802 804 804 806 816 817 809 805 805 804 806 808 809 810 810 812 814 814 816 817 818 819
786 785 783 782 781 779 778 776 775 773 772 771 770 770 770 770 770 770 771 771 771 771 772 772 772 773 767 755 752 753 751 751 751 751 752 752 755 756 758 761 763 765 767 768 769 769 770 774 777 779 782 785 787 790 799 808 808 801 800 805 805 804 807 808 807 803 799 803 808 808 811 813 807 804 806 806 807 810 810 810 810 811 813 814 815 817 818 819
785 784 783 782 780 779 777 776 774 773 772 771 770 770 770 770 771 771 771 771 772 772 773 773 772 774 767 755 755 755 752 751 751 751 752 753 756 757 758 761 763 765 768 771 772 772 774 776 780 785 787 789 789 792 803 807 802 802 803 804 805 804 805 806 803 799 797 801 808 811 812 811 808 806 807 807 807 811 811 809 810 811 812 813 814 816 817 818
785 784 782 781 779 778 776 775 774 773 772 770 770 770 770 770 771 771 772 772 772 771 770 770 769 770 767 758 754 753 750 750 750 750 752 753 755 758 759 761 763 766 771 775 776 775 777 781 786 792 794 792 791 790 795 795 791 794 798 799 803 804 803 801 796 793 794 802 808 811 813 812 810 809 809 808 808 812 813 811 811 812 812 813 814 815 816 818
784 782 781 780 779 777 775 774 773 772 772 771 770 770 771 772 772 772 772 771 769 765 763 763 763 763 761 756 753 752 750 749 750 750 751 752 754 758 760 762 766 769 772 777 780 776 776 787 794 793 793 790 788 786 786 788 788 790 794 797 800 803 802 795 794 792 789 801 811 807 810 813 812 812 810 810 811 813 815 814 813 813 812 813 814 814 815 816
783 782 780 779 778 776 775 774 773 772 771 771 770 771 772 774 776 774 770 767 762 760 760 759 760 760 756 754 753 752 752 752 750 749 751 752 753 761 765 765 771 776 776 775 777 776 779 792 795 788 786 786 786 785 784 787 788 790 794 796 799 802 800 792 793 793 788 800 811 806 810 816 814 814 814 813 814 814 814 814 814 812 812 812 813 813 814 814
782 781 779 778 777 776 774 773 772 771 771 771 771 771 772 772 773 771 770 769 762 757 759 758 759 759 753 752 751 751 756 757 753 751 751 753 756 763 767 769 775 779 777 775 778 783 790 794 789 783 785 786 787 786 785 788 789 792 795 797 800 799 798 796 796 794 790 799 810 808 812 818 814 813 815 816 815 813 810 811 812 811 812 812 812 812 812 813
782 780 778 777 776 775 773 772 772 771 770 770 770 770 771 770 768 768 770 773 767 758 757 758 758 757 753 751 749 750 756 757 757 754 750 753 758 762 766 771 776 777 778 778 782 791 797 790 782 781 784 787 789 789 788 789 791 793 795 798 801 797 799 805 803 799 794 800 808 809 813 817 815 814 815 815 814 812 810 810 811 811 811 811 810 810 811 812
781 779 778 776 775 774 772 771 771 771 770 770 770 769 769 768 767 767 768 772 772 761 755 755 754 754 753 750 748 751 755 755 756 754 748 753 760 762 765 769 774 778 779 779 781 789 790 782 777 781 784 785 788 790 790 792 795 795 794 796 797 794 797 802 803 801 799 803 804 808 820 822 816 818 817 813 813 812 812 812 813 812 810 809 809 808 809 810
780 778 776 774 774 774 772 771 770 770 770 769 769 769 768 767 765 765 768 776 777 763 754 754 754 753 749 748 749 750 752 753 752 750 747 750 757 762 765 766 771 780 781 780 783 786 784 777 776 780 783 784 787 790 790 792 797 797 792 789 790 791 794 800 802 804 813 818 806 807 829 830 815 815 816 814 814 814 813 814 813 812 810 810 810 808 808 808
779 777 775 774 773 772 772 771 770 770 769 768 768 768 767 767 765 765 770 781 781 768 759 757 757 754 749 750 750 748 757 758 748 746 747 748 750 756 766 768 769 777 779 777 782 783 780 775 774 778 782 784 787 790 789 789 798 802 789 782 786 788 793 801 802 807 821 823 806 802 823 832 821 815 812 811 815 814 813 814 811 810 810 810 809 807 807 808
778 776 775 774 772 772 772 770 771 770 769 769 768 767 766 765 765 763 772 791 790 773 765 762 758 755 751 751 749 754 768 763 749 748 747 748 749 751 765 772 771 774 772 776 787 783 776 776 777 778 780 785 788 790 788 786 796 799 784 781 787 786 792 799 800 807 812 811 809 805 812 826 827 815 806 807 814 816 813 812 810 808 808 808 807 805 805 806
777 775 774 773 772 772 771 770 771 769 769 769 766 767 766 763 764 765 780 803 795 771 765 762 754 751 750 750 750 756 763 758 758 757 746 747 751 753 766 771 770 773 768 777 791 784 774 776 778 778 781 787 786 784 783 783 791 788 779 782 783 783 790 794 799 806 804 808 822 817 811 825 827 813 806 807 813 817 812 808 806 805 806 805 805 804 803 804
776 774 773 772 771 771 770 770 770 768 768 767 765 766 763 762 764 769 789 804 787 767 765 760 753 753 753 754 755 757 757 756 762 758 747 750 752 753 765 767 766 772 769 774 784 779 773 771 771 774 781 783 778 777 777 781 785 778 776 782 781 784 790 794 801 804 805 815 827 820 814 825 827 815 812 813 812 811 805 802 801 800 802 802 802 802 802 802
775 773 772 771 770 770 770 769 767 767 766 765 765 764 762 765 770 784 804 802 783 770 764 759 758 759 758 760 762 760 759 759 758 755 753 756 754 754 761 762 763 770 772 774 777 775 770 767 767 770 773 772 770 772 773 775 776 773 777 783 786 791 792 797 801 801 816 827 819 812 811 819 825 815 810 808 800 794 795 799 799 797 799 799 800 801 800 801
774 772 770 769 769 769 769 768 766 766 765 764 764 761 763 771 779 799 809 792 780 775 766 764 764 761 762 766 767 764 763 762 759 760 762 762 762 762 765 767 769 774 780 779 777 776 772 770 770 765 762 764 767 772 773 772 772 775 781 785 793 802 802 809 809 809 830 834 812 804 806 817 826 812 800 797 787 784 789 793 794 794 796 797 797 798 798 799
772 770 769 767 768 768 768 767 765 765 765 763 763 762 769 782 793 805 801 783 782 780 771 771 768 764 765 767 770 769 766 767 764 764 768 770 772 772 775 777 778 785 793 789 783 781 774 770 769 763 758 761 768 776 779 778 778 781 786 789 802 815 821 830 830 826 834 826 807 803 806 818 821 801 793 793 785 783 784 783 787 789 791 794 794 795 796 797
770 768 767 766 766 766 766 766 764 765 764 762 764 766 775 794 805 804 795 786 785 778 770 772 770 767 767 768 773 772 770 772 769 767 770 773 777 778 778 778 777 785 794 792 790 788 781 773 767 766 763 759 764 776 782 784 784 787 789 793 805 819 832 843 843 837 832 819 806 801 806 817 810 795 793 791 783 781 779 778 780 782 786 789 790 792 795 796
768 766 765 765 765 765 765 765 764 764 763 762 767 772 785 803 805 796 791 786 780 773 772 775 772 770 771 774 777 773 773 777 772 769 771 774 782 784 781 778 776 779 784 789 791 791 794 788 772 767 767 761 762 767 769 773 781 784 781 785 796 803 816 830 835 833 827 818 812 806 810 814 806 797 793 785 779 777 775 775 775 778 782 784 787 790 793 796
766 764 764 763 764 764 764 764 764 763 764 764 770 781 795 806 803 795 791 783 776 774 775 776 775 774 776 778 776 771 773 777 775 775 777 781 788 790 787 783 779 779 782 790 791 789 797 792 770 762 763 761 761 760 758 766 779 782 776 782 791 786 789 805 814 812 810 815 818 814 810 806 798 793 788 782 780 776 775 775 775 778 781 783 787 789 791 795
764 763 763 763 763 764 763 764 764 763 764 767 777 790 798 798 794 791 785 776 776 777 777 778 780 782 783 781 778 774 771 774 778 781 785 788 789 789 789 784 779 779 781 788 792 791 797 789 767 762 762 757 759 758 756 763 773 780 782 784 782 772 775 793 807 807 806 815 821 817 811 805 799 795 790 787 785 781 779 779 778 780 780 783 787 787 790 793
763 762 762 762 763 763 763 764 764 764 765 771 783 793 794 787 783 782 777 773 775 776 778 786 788 790 792 789 787 782 775 776 780 785 791 794 791 788 788 784 779 779 778 782 787 788 795 789 769 764 764 756 755 757 756 756 761 775 782 776 772 774 777 786 803 814 816 819 822 820 817 814 809 804 798 795 793 790 787 783 782 783 783 785 787 787 788 790
763 762 763 763 763 763 763 764 764 764 768 777 787 791 790 784 779 777 774 773 774 774 781 792 791 790 794 794 792 788 782 783 785 789 795 797 793 788 787 785 779 777 777 778 782 784 790 791 775 765 767 761 754 758 763 759 755 762 766 761 768 785 789 788 800 813 818 825 828 824 821 817 812 809 806 803 801 797 792 788 787 787 787 788 789 789 789 791
763 764 766 765 763 763 764 764 764 766 773 784 792 791 787 783 776 774 774 774 774 776 784 791 789 789 793 792 792 789 787 789 791 794 796 798 796 788 785 786 781 777 776 776 781 784 786 793 785 768 765 764 759 762 771 769 760 757 761 761 765 776 781 784 791 796 805 824 831 824 821 816 809 809 809 805 802 799 795 793 791 790 790 790 790 791 792 794
764 768 770 766 763 764 765 764 766 772 780 789 793 789 785 781 775 772 772 772 774 777 783 788 788 789 791 791 791 790 790 792 794 796 797 797 796 789 784 786 783 778 777 776 780 783 784 793 792 775 765 769 771 771 772 772 767 764 767 771 771 771 773 779 787 790 798 814 824 823 819 814 807 805 805 803 800 798 796 796 795 794 792 792 792 793 794 795
767 772 772 766 765 766 766 768 774 781 786 790 790 786 783 780 775 773 771 770 772 774 777 782 785 787 789 790 791 790 790 793 794 796 797 795 796 793 786 783 784 781 778 778 780 783 785 792 795 787 776 775 775 770 767 770 769 768 771 774 776 775 776 785 796 799 797 801 811 814 809 807 806 800 799 800 799 797 797 797 798 797 795 795 795 794 795 797
770 776 773 766 766 766 767 776 783 786 786 786 785 783 780 778 777 777 773 771 773 773 774 778 782 785 787 788 790 790 790 794 796 796 796 795 794 792 786 781 782 781 780 783 784 782 784 791 795 791 782 777 773 767 767 770 768 767 769 773 776 775 775 784 792 797 799 800 806 809 805 805 805 798 796 799 798 797 798 797 799 799 797 797 797 796 797 797
774 776 770 766 767 766 771 782 786 785 785 783 782 781 779 779 780 779 777 776 776 776 776 779 781 782 784 785 787 790 792 795 798 796 795 795 791 787 784 781 780 780 780 785 785 781 783 792 796 791 781 774 768 765 765 765 767 771 772 772 775 776 775 777 780 786 796 801 804 808 809 808 803 796 796 798 797 798 799 798 799 801 800 799 799 798 798 797
778 776 771 767 766 767 775 785 787 785 785 782 781 781 779 780 781 780 780 780 780 780 780 781 781 781 783 784 786 791 795 797 798 796 794 795 790 784 783 781 779 780 782 784 784 781 786 795 798 797 795 789 783 781 777 772 773 779 779 775 775 777 777 778 780 783 791 798 798 797 804 808 802 797 798 799 799 801 801 800 800 801 801 801 800 799 798 797
778 777 774 770 766 769 777 783 783 785 786 784 784 784 783 782 781 781 782 782 782 782 783 783 781 781 783 785 788 792 794 795 796 796 795 794 789 784 783 782 780 781 781 781 780 780 787 796 798 800 807 811 810 807 798 790 786 783 781 780 778 779 779 777 781 785 789 798 798 791 798 808 804 799 801 801 802 804 804 803 802 802 803 802 802 801 800 799
779 780 780 775 771 773 779 782 783 784 784 785 787 788 787 786 783 781 781 783 783 783 784 785 783 782 783 786 791 794 794 794 795 795 796 795 790 786 785 783 781 781 780 779 779 780 787 796 798 798 802 807 807 802 795 793 793 787 784 786 784 784 782 777 780 784 785 795 800 794 797 807 805 802 803 803 804 806 806 806 805 804 804 804 803 803 801 801
782 785 787 784 780 779 781 783 785 784 783 785 789 790 790 790 787 783 781 783 784 784 785 788 788 787 788 789 794 798 797 796 795 795 799 798 792 788 786 784 782 781 779 778 780 782 788 798 800 798 799 800 798 797 791 789 793 791 790 793 790 787 784 777 774 777 781 790 796 795 798 804 803 800 801 803 805 805 806 806 806 806 806 805 805 804 803 803
784 788 789 788 787 787 786 785 786 787 785 785 788 790 792 792 792 790 787 784 784 785 787 791 794 794 793 791 793 800 802 800 800 800 800 798 795 790 787 785 784 782 781 781 782 785 793 800 800 798 800 799 796 794 791 789 790 791 794 797 794 792 788 780 778 781 780 780 783 790 797 801 798 796 798 802 803 804 805 806 805 806 806 806 807 806 806 806
786 788 788 788 789 790 789 788 788 788 786 784 787 790 793 794 794 794 791 788 789 789 791 797 800 798 795 792 792 801 805 804 805 804 800 799 799 796 793 791 788 784 783 784 787 790 794 799 799 799 800 798 793 790 787 789 790 790 795 797 796 795 791 786 789 790 785 783 786 791 797 798 794 794 797 800 801 802 804 805 806 808 808 808 809 809 809 808
787 789 789 789 789 789 790 790 788 787 786 787 790 792 793 795 794 793 793 793 795 793 793 798 801 798 796 794 794 800 803 801 803 803 799 799 800 798 797 796 792 788 787 788 791 791 793 799 801 799 799 799 796 789 785 788 791 792 797 798 796 795 792 788 791 791 791 795 795 793 798 800 795 792 795 799 801 803 805 807 809 809 809 809 809 810 810 810
789 790 790 789 789 789 790 791 790 788 787 789 791 792 794 795 794 794 794 794 795 794 792 795 798 797 796 796 796 799 799 797 798 796 794 796 796 794 794 795 794 793 791 793 795 792 793 800 800 798 801 803 801 797 792 789 790 794 800 803 802 799 796 794 795 793 793 796 798 799 801 800 794 792 797 801 802 805 808 809 810 809 808 809 810 811 812 812
790 790 790 790 790 791 793 793 792 790 790 790 791 791 792 793 792 794 796 795 793 793 793 794 795 796 797 798 797 795 793 793 793 791 791 793 792 791 792 793 793 793 793 796 799 800 801 801 800 804 806 805 806 803 795 793 801 807 807 807 807 803 798 798 800 798 793 793 797 801 798 793 791 793 798 803 805 807 809 809 809 809 808 808 810 812 813 814